sat.trackr.live / text

‹ back to catalog

STARLINK-36728

NORAD 67927 · 2026-036Z

PAYLOAD ACTIVE UNKNOWN

§ Identity

Operator
Country
US
Launch date
2026-02-22
Launch site
AFETR
Launch vehicle
Mass (kg)
RCS (m²)

Purposes: comms

External: N2YO · Heavens-Above · Gunter

§ Orbital elements

Epoch: 2026-05-25T01:30:59.081184Z

Period
94.27 min
Inclination
43.0043°
Eccentricity
0.0001413
Mean motion
15.27586783 rev/d
Perigee alt
482.1 km
Apogee alt
484.0 km
Semi-major
6,861.2 km
B*
2.5917e-4
RAAN
173.8311°
Arg perigee
273.1894°
Mean anomaly
86.8796°
Rev number
1,540

§ Raw data

STARLINK-367281 67927U 26036Z   26145.06318381  .00006878  00000+0  25917-3 0  99912 67927  43.0043 173.8311 0001413 273.1894  86.8796 15.27586783 15400

JSON: /api/v1/satellites/67927 · /tle

For live sub-satellite position, see the globe view (requires WebGL).

§ Visibility from observer

Set your observer location to see the next 7 days of passes ≥ 10°. The values pass through the URL so the page stays shareable.

No JS? Fill the form by hand. The geolocation button needs JavaScript.